Regional Weather Roundup
Issued by NWS Newport/Morehead, NC

Current Version | Previous Version | Graphics & Text | Print | Product List | Glossary On
Versions: 1 2 3 4 5 6 7 8 9 10 11 12 13 14 15 16 17 18 19 20 21 22 23 24 25 26 27 28 29 30 31 32 33 34 35 36 37 38 39 40 41 42 43 44 45 46 47 48 49 50
000
ASUS42 KMHX 202024
RWRMHX
WEATHER ROUNDUP FOR EASTERN NORTH CAROLINA
NATIONAL WEATHER SERVICE NEWPORT/MOREHEAD CITY NC
400 PM EDT MON APR 20 2015

NOTE: "FAIR" INDICATES FEW OR NO CLOUDS BELOW 12,000 FEET
WITH NO SIGNIFICANT WEATHER AND/OR OBSTRUCTIONS TO VISIBILITY

NCZ015>017-031-032-045>047-102-103-202100-
NORTH COAST

CITY           SKY/WX    TMP DP  RH WIND       PRES   REMARKS
EDENTON        SUNNY     78  63  61 SW12      29.69F
ELIZABETH CITY SUNNY     77  63  61 SW16      29.69F
KITTY HAWK     CLEAR     80  62  54 SW12G18   29.70F
MANTEO         MOSUNNY   77  65  65 S15       29.71F

$$

NCZ045>047-081-094-103-104-202100-
CENTRAL COAST

CITY           SKY/WX    TMP DP  RH WIND       PRES   REMARKS
FRISCO         SUNNY     70  64  81 SW18G28   29.78R
SWANQUARTER      N/A     75 N/A N/A S16G22    29.68F

$$

NCZ095-097-098-100-101-202100-
SOUTHERN COAST

CITY           SKY/WX    TMP DP  RH WIND       PRES   REMARKS
BEAUFORT       PTSUNNY   70  66  87 SW20G25   29.76F
CEDAR ISLAND     N/A     77 N/A N/A S12G20    29.77F
JACKSONVILLE   CLOUDY    77  65  66 S13       29.73F
PINEY ISLAND   MOCLDY   N/A N/A N/A S17       29.74F
WILMINGTON     CLOUDY    74  64  71 SW9G20    29.75F


$$

NCZ011>013-027>030-043-044-078>080-089-090>093-098-202100-
COASTAL PLAIN

CITY           SKY/WX    TMP DP  RH WIND       PRES   REMARKS
AHOSKIE        MOSUNNY   78  63  59 S7        29.67F
CLINTON        CLOUDY    77  65  67 S6        29.72F
ELIZABETHTOWN  CLOUDY    77  63  61 S10       29.72F
GOLDSBORO      CLOUDY    78  62  57 SW12      29.68F
GREENVILLE     PTSUNNY   79  63  57 S16       29.72F
HAVELOCK       PTSUNNY   76  64  66 S13       29.76F
KENANSVILLE    CLOUDY    77  60  56 S3        29.72F
KINSTON        CLOUDY    79  59  50 S13G21    29.71F
NEW BERN       CLOUDY    80  63  55 SW15      29.74F
RICHLANDS      CLOUDY    79  59  50 SW13G22   29.73F
ROCKY MOUNT    CLOUDY    78  63  59 S14G20    29.67F
WASHINGTON     PTSUNNY   78  60  54 SW8G16    29.69F
WHITEVILLE     CLOUDY    75  66  73 S9        29.74F

$$

AMZ130-135-150-152-154-156-158-170-250-252-270-ANZ085-086-088-633-658-670-202100-
MARINE OBSERVATIONS

STATION/POSITION TIME  TEMP    WIND        PRES    WAVE   SWELL
                       AIR SEA DIR/SP/G            HT/PER HT/PER
                 (UTC) (F)     (DEG/KT/KT) (MB)    (FT/S) (FT/S)
CHESAPEAKE LIGHT 2000   66     200/ 22/ 22 1004.9
64 E VA BEACH    1950   58 56  210/ 10/ 12 1006.5    8/ 9   8/ 9
DUCK             2000   75 49  210/ 12/ 16 1005.0
2 E DUCK         1911      53                N/A     5/ 9   2/11
10 NE DUCK       NOT AVBL
OREGON INLET     2000   69 66  190/ 15/ 19 1007.0
HATTERAS CG      2000   72 67  210/ 12/ 18 1007.4
DIAMOND BUOY     1950   72 73  240/ 21/ 25 1008.4    6/ 8   3/ 8
CAPE LOOKOUT     2000   69     220/  9/ 12 1007.9
BEAUFORT LAB     2000   69 66  210/ 12/ 17 1007.1
27 SE WRIGHTSVLE 2000   66 71  230/ 16/ 19   N/A
5 SE WRIGHTSVLE  2000   67 65  210/ 12/ 16 1007.5
225 S CAPE HAT   1950   73 73  220/ 14/ 16 1011.9    4/15   2/15
41 SE CHARLESTON 1950   71 74  210/ 16/ 19 1008.5    4/ 5   2/10

$$


USA.gov is the U.S. government's official web portal to all federal, state and local government web resources and services.